contact:dominique.lefevre@mio.osupytheas.fr, maurice.libes@osupytheas.fr, didier.mallarino@osupytheas.fr
Project:EMSO http://www.emso-fr.org/EMSO-France
Depth: 2436.0 m
Title:EMSO Ligure Ouest : Data MII capteur AQUADOPP
Date,Latitude,Longitude,X_East,Y_North,Z_Up,Amplitude_X,Amplitude_Y,Amplitude_Z,Batterie,SoundSpeed,Heading,Pitch,Roll,Pressure,TIS,Speed,Direction
, degrees North, degrees East, m.s-1, m.s-1,m.s-1, 1, 1, 1, Volt, m.s-1, degree, degree, degree, dbar, degree_C, m.s-1, degree
2022-09-24T00:04:03,42.805,6.029,-0.007,-0.027,0.011,102.0,101.0,100.0,13.4,1505.2,317.0,-0.8,1.8,2471.015,13.29,0.027,194.5
2022-09-24T00:07:03,42.805,6.029,-0.022,-0.004,0.025,101.0,102.0,100.0,13.4,1505.2,328.9,-0.8,1.8,2471.03,13.29,0.022,259.7
2022-09-24T00:10:03,42.805,6.029,-0.018,0.007,0.025,100.0,100.0,100.0,13.4,1505.2,324.6,-0.8,1.8,2471.009,13.29,0.019,291.2
2022-09-24T00:13:03,42.805,6.029,-0.017,-0.016,0.031,101.0,102.0,99.0,13.4,1505.2,328.1,-0.8,1.8,2470.973,13.29,0.023,226.7
2022-09-24T00:16:03,42.805,6.029,-0.025,-0.031,-0.014,100.0,101.0,101.0,13.4,1505.2,318.6,-0.8,1.8,2470.97,13.29,0.039,218.9
2022-09-24T00:19:03,42.805,6.029,-0.035,-0.029,-0.034,102.0,99.0,100.0,13.3,1505.2,334.0,-0.7,1.8,2470.956,13.29,0.045,230.4
2022-09-24T00:22:03,42.805,6.029,-0.023,-0.031,0.02,101.0,100.0,100.0,13.4,1505.2,322.1,-0.8,1.8,2470.983,13.29,0.038,216.6
2022-09-24T00:25:03,42.805,6.029,-0.008,-0.011,0.024,100.0,101.0,99.0,13.4,1505.2,328.2,-0.7,1.8,2470.944,13.29,0.013,216.0
2022-09-24T00:28:03,42.805,6.029,-0.046,-0.005,-0.032,100.0,100.0,100.0,13.3,1505.2,326.9,-0.7,1.8,2470.929,13.3,0.046,263.8
2022-09-24T00:31:03,42.805,6.029,-0.013,-0.021,-0.014,101.0,101.0,100.0,13.4,1505.2,321.3,-0.7,1.8,2470.953,13.29,0.024,211.8
2022-09-24T00:34:03,42.805,6.029,-0.027,-0.035,0.0,101.0,102.0,100.0,13.4,1505.2,329.4,-0.7,1.8,2470.94,13.3,0.044,217.7
2022-09-24T00:37:03,42.805,6.029,-0.021,-0.013,0.02,100.0,100.0,102.0,13.4,1505.2,326.3,-0.7,1.8,2470.96,13.29,0.024,238.2
2022-09-24T00:40:03,42.805,6.029,-0.02,-0.014,0.028,101.0,101.0,100.0,13.4,1505.2,321.0,-0.8,1.8,2470.959,13.29,0.024,235.0
2022-09-24T00:43:03,42.805,6.029,-0.023,-0.011,0.024,105.0,101.0,101.0,13.3,1505.2,329.3,-0.7,1.8,2470.947,13.29,0.025,244.4
2022-09-24T00:46:03,42.805,6.029,-0.038,0.0,-0.013,101.0,102.0,101.0,13.3,1505.2,329.1,-0.8,1.8,2470.935,13.29,0.038,270.0
2022-09-24T00:49:03,42.805,6.029,-0.01,-0.029,0.021,100.0,101.0,99.0,13.4,1505.2,323.3,-0.8,1.8,2470.948,13.29,0.03,199.0
2022-09-24T00:52:03,42.805,6.029,-0.032,-0.006,-0.004,102.0,102.0,99.0,13.4,1505.2,325.9,-0.8,1.8,2470.951,13.29,0.032,259.4
2022-09-24T00:55:03,42.805,6.029,-0.01,-0.042,0.006,101.0,100.0,100.0,13.4,1505.2,319.8,-0.8,1.8,2470.97,13.29,0.043,193.4
2022-09-24T00:58:03,42.805,6.029,-0.014,-0.003,0.048,101.0,101.0,100.0,13.3,1505.2,333.1,-0.7,1.8,2470.949,13.29,0.014,257.9
2022-09-24T01:04:03,42.805,6.029,-0.03,-0.013,0.043,102.0,102.0,101.0,13.3,1505.2,322.0,-0.8,1.8,2470.965,13.29,0.032,246.6
2022-09-24T01:07:03,42.805,6.029,0.009,0.002,0.019,101.0,102.0,101.0,13.4,1505.2,329.7,-0.8,1.8,2470.996,13.29,0.009,77.5
2022-09-24T01:10:03,42.805,6.029,-0.05,-0.011,0.007,99.0,104.0,101.0,13.4,1505.2,320.9,-0.8,1.8,2470.969,13.29,0.051,257.6
2022-09-24T01:13:03,42.805,6.029,-0.013,0.008,0.041,100.0,100.0,101.0,13.3,1505.2,325.9,-0.7,1.8,2470.974,13.29,0.015,301.6
2022-09-24T01:16:03,42.805,6.029,-0.023,-0.015,0.003,102.0,99.0,100.0,13.4,1505.2,321.3,-0.7,1.8,2470.951,13.29,0.027,236.9
2022-09-24T01:19:03,42.805,6.029,-0.032,-0.028,0.007,101.0,102.0,99.0,13.4,1505.2,331.2,-0.8,1.8,2470.913,13.29,0.042,228.8
2022-09-24T01:22:03,42.805,6.029,0.011,-0.038,0.008,101.0,101.0,100.0,13.4,1505.2,324.1,-0.8,1.8,2470.95,13.29,0.039,163.9
2022-09-24T01:25:03,42.805,6.029,-0.028,-0.001,0.013,102.0,101.0,99.0,13.4,1505.2,320.5,-0.8,1.8,2470.94,13.29,0.028,268.0
2022-09-24T01:28:03,42.805,6.029,-0.017,0.011,0.031,102.0,100.0,100.0,13.4,1505.2,326.6,-0.7,1.8,2470.946,13.29,0.02,302.9
2022-09-24T01:31:03,42.805,6.029,-0.032,-0.018,0.033,101.0,101.0,101.0,13.4,1505.2,319.4,-0.8,1.8,2470.923,13.29,0.036,240.6
2022-09-24T01:34:03,42.805,6.029,-0.023,-0.006,0.03,101.0,102.0,102.0,13.3,1505.2,322.4,-0.8,1.8,2470.941,13.29,0.023,255.4
2022-09-24T01:37:03,42.805,6.029,-0.007,-0.004,0.023,101.0,100.0,100.0,13.4,1505.2,330.3,-0.8,1.8,2470.925,13.29,0.008,240.3
2022-09-24T01:40:03,42.805,6.029,-0.012,-0.009,-0.009,100.0,101.0,100.0,13.4,1505.2,317.6,-0.8,1.8,2470.921,13.29,0.015,233.1
2022-09-24T01:43:03,42.805,6.029,-0.008,-0.014,0.03,100.0,101.0,99.0,13.3,1505.2,332.2,-0.8,1.8,2470.94,13.29,0.016,209.7
2022-09-24T01:46:03,42.805,6.029,-0.01,-0.036,0.021,102.0,101.0,99.0,13.4,1505.2,323.6,-0.8,1.8,2470.912,13.29,0.037,195.5
2022-09-24T01:49:03,42.805,6.029,0.003,-0.007,0.012,101.0,100.0,101.0,13.3,1505.2,331.2,-0.8,1.8,2470.944,13.29,0.007,156.8
2022-09-24T01:52:03,42.805,6.029,0.008,-0.023,0.032,101.0,101.0,100.0,13.4,1505.2,323.1,-0.8,1.8,2470.937,13.29,0.024,160.8
2022-09-24T01:55:03,42.805,6.029,-0.017,-0.007,0.009,100.0,101.0,100.0,13.3,1505.2,330.1,-0.7,1.8,2470.943,13.29,0.018,247.6
2022-09-24T01:58:03,42.805,6.029,-0.019,-0.003,0.014,102.0,99.0,101.0,13.4,1505.2,323.1,-0.8,1.8,2470.962,13.29,0.019,261.0
2022-09-24T02:04:03,42.805,6.029,-0.013,0.006,0.023,100.0,101.0,99.0,13.4,1505.2,328.7,-0.7,1.8,2470.959,13.29,0.014,294.8
2022-09-24T02:07:03,42.805,6.029,-0.004,-0.023,0.017,101.0,101.0,100.0,13.3,1505.2,318.9,-0.7,1.8,2470.968,13.29,0.023,189.9
2022-09-24T02:10:03,42.805,6.029,-0.005,-0.011,0.068,101.0,102.0,99.0,13.4,1505.2,320.1,-0.7,1.8,2471.007,13.29,0.012,204.4
2022-09-24T02:13:03,42.805,6.029,-0.011,-0.001,0.023,100.0,103.0,99.0,13.3,1505.2,322.5,-0.8,1.8,2471.003,13.29,0.011,264.8
2022-09-24T02:16:03,42.805,6.029,-0.015,-0.014,0.017,102.0,103.0,100.0,13.4,1505.2,322.7,-0.8,1.8,2470.941,13.29,0.02,227.0
2022-09-24T02:19:03,42.805,6.029,-0.02,-0.018,0.016,101.0,100.0,100.0,13.4,1505.2,322.7,-0.8,1.8,2470.945,13.29,0.026,228.0
2022-09-24T02:22:03,42.805,6.029,-0.02,-0.015,0.022,100.0,100.0,100.0,13.4,1505.2,329.2,-0.8,1.8,2470.939,13.29,0.025,233.1
2022-09-24T02:25:03,42.805,6.029,0.0,0.012,0.062,100.0,100.0,100.0,13.3,1505.2,327.1,-0.7,1.8,2470.985,13.29,0.012,0.0
2022-09-24T02:28:03,42.805,6.029,-0.017,-0.001,0.03,99.0,102.0,100.0,13.3,1505.2,328.5,-0.8,1.8,2470.972,13.29,0.017,266.6
2022-09-24T02:31:03,42.805,6.029,-0.038,-0.005,0.01,98.0,102.0,100.0,13.4,1505.2,330.8,-0.7,1.8,2471.021,13.29,0.038,262.5
2022-09-24T02:34:03,42.805,6.029,-0.019,-0.02,0.013,99.0,101.0,101.0,13.4,1505.2,321.8,-0.7,1.8,2470.926,13.29,0.027,223.5
2022-09-24T02:37:03,42.805,6.029,0.012,-0.032,0.016,100.0,101.0,100.0,13.3,1505.2,323.4,-0.7,1.9,2470.966,13.29,0.034,159.4
2022-09-24T02:40:03,42.805,6.029,-0.04,-0.011,0.006,100.0,101.0,101.0,13.4,1505.2,323.0,-0.7,1.8,2470.964,13.29,0.041,254.6
2022-09-24T02:43:03,42.805,6.029,-0.001,-0.007,0.02,99.0,103.0,100.0,13.4,1505.2,325.0,-0.7,1.8,2470.991,13.29,0.007,188.1
2022-09-24T02:46:03,42.805,6.029,-0.01,0.006,0.061,100.0,100.0,99.0,13.3,1505.2,321.0,-0.7,1.8,2470.971,13.29,0.011,301.0
2022-09-24T02:49:03,42.805,6.029,-0.013,-0.021,0.004,102.0,100.0,98.0,13.4,1505.2,332.8,-0.8,1.8,2470.965,13.29,0.024,211.8
2022-09-24T02:52:03,42.805,6.029,-0.028,-0.012,0.026,101.0,100.0,101.0,13.3,1505.2,331.9,-0.8,1.8,2471.003,13.29,0.03,246.8
2022-09-24T02:55:03,42.805,6.029,-0.014,-0.034,-0.003,102.0,102.0,98.0,13.4,1505.2,322.2,-0.7,1.8,2470.949,13.29,0.036,202.4
2022-09-24T02:58:03,42.805,6.029,-0.059,0.0,0.021,100.0,102.0,99.0,13.4,1505.2,329.3,-0.7,1.8,2471.005,13.29,0.058,270.0
2022-09-24T03:04:03,42.805,6.029,-0.006,-0.021,0.007,101.0,101.0,100.0,13.4,1505.2,322.6,-0.8,1.8,2471.024,13.29,0.021,195.9
2022-09-24T03:07:03,42.805,6.029,0.002,0.017,0.052,102.0,102.0,99.0,13.4,1505.2,328.2,-0.8,1.8,2470.991,13.29,0.017,6.7
2022-09-24T03:10:03,42.805,6.029,-0.005,-0.014,0.041,101.0,101.0,101.0,13.3,1505.2,319.0,-0.7,1.8,2470.975,13.29,0.014,199.6
2022-09-24T03:13:03,42.805,6.029,-0.039,-0.018,-0.023,101.0,100.0,101.0,13.3,1505.2,323.9,-0.8,1.8,2471.011,13.29,0.042,245.2
2022-09-24T03:16:03,42.805,6.029,-0.023,-0.03,0.012,100.0,100.0,99.0,13.4,1505.2,325.0,-0.7,1.8,2470.998,13.29,0.037,217.5
2022-09-24T03:19:03,42.805,6.029,0.015,-0.014,0.022,101.0,101.0,100.0,13.3,1505.2,321.6,-0.8,1.8,2470.99,13.29,0.02,133.0
2022-09-24T03:22:03,42.805,6.029,-0.024,0.01,0.039,102.0,100.0,99.0,13.4,1505.2,319.6,-0.8,1.8,2470.998,13.29,0.026,292.6
2022-09-24T03:25:03,42.805,6.029,-0.017,-0.013,0.018,100.0,102.0,98.0,13.3,1505.2,325.0,-0.8,1.8,2471.04,13.29,0.021,232.6
2022-09-24T03:28:03,42.805,6.029,-0.015,-0.02,0.036,101.0,100.0,99.0,13.3,1505.2,323.7,-0.8,1.8,2471.014,13.29,0.025,216.9
2022-09-24T03:31:03,42.805,6.029,0.02,-0.046,-0.019,102.0,99.0,99.0,13.4,1505.2,327.6,-0.8,1.8,2470.984,13.29,0.05,156.5
2022-09-24T03:34:03,42.805,6.029,-0.004,0.012,0.027,100.0,102.0,99.0,13.4,1505.2,327.0,-0.8,1.8,2471.015,13.29,0.012,341.6
2022-09-24T03:37:03,42.805,6.029,0.01,-0.028,-0.008,100.0,101.0,100.0,13.4,1505.2,323.1,-0.7,1.8,2471.022,13.29,0.029,160.4
2022-09-24T03:40:03,42.805,6.029,-0.015,-0.009,0.025,100.0,101.0,99.0,13.4,1505.2,330.4,-0.8,1.8,2470.977,13.29,0.017,239.0
2022-09-24T03:43:03,42.805,6.029,-0.007,-0.012,0.024,100.0,100.0,99.0,13.4,1505.2,327.6,-0.8,1.8,2470.979,13.29,0.013,210.3
2022-09-24T03:46:03,42.805,6.029,-0.025,0.001,0.02,98.0,100.0,101.0,13.4,1505.2,322.3,-0.8,1.8,2470.981,13.29,0.025,272.3
2022-09-24T03:49:03,42.805,6.029,-0.023,-0.019,-0.005,100.0,101.0,98.0,13.3,1505.2,318.2,-0.7,1.8,2471.025,13.29,0.029,230.4
2022-09-24T03:52:03,42.805,6.029,-0.02,-0.015,-0.001,100.0,102.0,100.0,13.4,1505.2,332.6,-0.7,1.8,2471.011,13.29,0.025,233.1
2022-09-24T03:55:03,42.805,6.029,0.012,-0.019,0.032,99.0,102.0,99.0,13.4,1505.2,320.9,-0.8,1.8,2470.999,13.29,0.022,147.7
2022-09-24T03:58:03,42.805,6.029,-0.035,-0.018,0.02,100.0,102.0,99.0,13.3,1505.2,327.0,-0.7,1.8,2471.039,13.29,0.039,242.8
2022-09-24T04:04:03,42.805,6.029,0.002,-0.017,0.03,100.0,101.0,100.0,13.3,1505.2,324.8,-0.8,1.8,2471.059,13.29,0.017,173.3
2022-09-24T04:07:03,42.805,6.029,-0.026,-0.033,0.004,100.0,101.0,99.0,13.4,1505.2,320.1,-0.8,1.8,2471.045,13.29,0.042,218.2
2022-09-24T04:10:03,42.805,6.029,-0.012,-0.027,0.015,101.0,102.0,99.0,13.3,1505.2,319.5,-0.8,1.8,2471.049,13.29,0.029,204.0
2022-09-24T04:13:03,42.805,6.029,-0.006,-0.009,0.027,99.0,101.0,99.0,13.4,1505.2,317.3,-0.8,1.8,2471.022,13.29,0.01,213.7
2022-09-24T04:16:03,42.805,6.029,-0.003,-0.018,0.014,102.0,102.0,99.0,13.4,1505.2,325.5,-0.7,1.8,2471.037,13.29,0.018,189.5
2022-09-24T04:19:08,42.805,6.029,-0.029,-0.023,0.012,101.0,100.0,99.0,13.4,1505.2,326.6,-0.8,1.8,2471.035,13.29,0.037,231.6
2022-09-24T04:22:05,42.805,6.029,-0.023,-0.019,0.0,100.0,102.0,99.0,13.3,1505.2,327.4,-0.7,1.8,2471.039,13.29,0.029,230.4
2022-09-24T04:25:03,42.805,6.029,-0.022,-0.016,0.003,99.0,102.0,99.0,13.4,1505.2,329.3,-0.8,1.8,2471.069,13.29,0.027,234.0
2022-09-24T04:28:03,42.805,6.029,-0.017,-0.031,0.004,100.0,102.0,100.0,13.3,1505.2,322.1,-0.7,1.8,2471.049,13.29,0.035,208.7
2022-09-24T04:31:03,42.805,6.029,-0.026,-0.026,-0.001,99.0,102.0,100.0,13.4,1505.2,329.7,-0.8,1.8,2471.043,13.29,0.036,225.0
2022-09-24T04:34:03,42.805,6.029,-0.007,-0.01,-0.002,100.0,102.0,99.0,13.4,1505.2,323.3,-0.8,1.8,2471.059,13.29,0.012,215.0
2022-09-24T04:37:03,42.805,6.029,-0.007,-0.03,0.011,100.0,102.0,100.0,13.4,1505.2,329.4,-0.8,1.8,2471.028,13.29,0.03,193.1
2022-09-24T04:40:03,42.805,6.029,-0.004,-0.038,0.005,101.0,100.0,99.0,13.4,1505.2,319.3,-0.8,1.8,2471.024,13.29,0.038,186.0
2022-09-24T04:43:09,42.805,6.029,-0.002,-0.001,0.013,100.0,101.0,99.0,13.4,1505.2,319.5,-0.8,1.8,2471.064,13.29,0.002,243.4
2022-09-24T04:46:03,42.805,6.029,-0.018,0.0,0.022,103.0,101.0,98.0,13.4,1505.2,317.8,-0.8,1.8,2471.032,13.29,0.018,270.0
2022-09-24T04:49:03,42.805,6.029,-0.014,-0.018,-0.008,101.0,99.0,99.0,13.3,1505.2,331.7,-0.7,1.8,2471.033,13.29,0.022,217.9
2022-09-24T04:52:03,42.805,6.029,-0.017,-0.016,0.016,98.0,100.0,100.0,13.3,1505.2,328.3,-0.7,1.8,2471.036,13.29,0.023,226.7
2022-09-24T04:55:03,42.805,6.029,-0.009,-0.015,0.03,100.0,100.0,100.0,13.4,1505.2,323.3,-0.7,1.8,2471.048,13.29,0.017,211.0
2022-09-24T04:58:03,42.805,6.029,-0.013,-0.003,0.007,99.0,100.0,100.0,13.4,1505.2,333.7,-0.8,1.8,2471.076,13.29,0.013,257.0
2022-09-24T05:04:03,42.805,6.029,-0.002,0.004,0.047,100.0,101.0,99.0,13.4,1505.2,326.9,-0.8,1.8,2471.1,13.29,0.004,333.4
2022-09-24T05:07:03,42.805,6.029,-0.015,-0.01,0.025,99.0,102.0,99.0,13.4,1505.2,327.4,-0.7,1.8,2471.087,13.29,0.018,236.3
2022-09-24T05:10:03,42.805,6.029,-0.008,-0.023,0.015,100.0,101.0,99.0,13.4,1505.2,323.1,-0.7,1.8,2471.1,13.29,0.024,199.2
2022-09-24T05:13:03,42.805,6.029,0.01,-0.024,-0.001,100.0,101.0,101.0,13.3,1505.2,323.7,-0.8,1.8,2471.065,13.29,0.026,157.4
2022-09-24T05:16:03,42.805,6.029,-0.011,-0.006,0.014,100.0,101.0,100.0,13.4,1505.2,326.8,-0.8,1.8,2471.047,13.29,0.012,241.4
2022-09-24T05:19:03,42.805,6.029,-0.03,-0.003,0.016,100.0,102.0,99.0,13.4,1505.2,327.3,-0.7,1.8,2471.096,13.29,0.03,264.3
2022-09-24T05:22:03,42.805,6.029,0.019,-0.03,0.039,100.0,102.0,100.0,13.4,1505.2,323.0,-0.8,1.8,2471.05,13.29,0.035,147.7
2022-09-24T05:25:03,42.805,6.029,-0.025,0.0,0.027,98.0,101.0,99.0,13.3,1505.2,331.6,-0.8,1.8,2471.096,13.29,0.025,270.0
2022-09-24T05:28:05,42.805,6.029,-0.004,-0.007,0.026,102.0,100.0,99.0,13.3,1505.2,323.1,-0.8,1.8,2471.127,13.29,0.008,209.7
2022-09-24T05:31:03,42.805,6.029,-0.025,-0.014,0.017,98.0,104.0,100.0,13.4,1505.2,323.2,-0.8,1.8,2471.078,13.29,0.028,240.7
2022-09-24T05:34:03,42.805,6.029,0.002,-0.001,0.019,100.0,101.0,99.0,13.3,1505.2,321.4,-0.8,1.8,2471.067,13.29,0.002,116.6
2022-09-24T05:37:03,42.805,6.029,-0.006,-0.022,0.019,104.0,102.0,100.0,13.3,1505.2,324.1,-0.8,1.8,2471.067,13.29,0.022,195.3
2022-09-24T05:40:03,42.805,6.029,-0.022,-0.015,-0.009,101.0,100.0,99.0,13.4,1505.2,321.8,-0.8,1.8,2471.092,13.29,0.026,235.7
2022-09-24T05:43:03,42.805,6.029,0.001,-0.022,0.005,101.0,98.0,98.0,13.4,1505.2,330.4,-0.7,1.8,2471.037,13.29,0.022,177.4
2022-09-24T05:46:03,42.805,6.029,-0.01,-0.013,0.001,100.0,100.0,100.0,13.3,1505.2,327.1,-0.8,1.8,2471.064,13.29,0.016,217.6
2022-09-24T05:49:03,42.805,6.029,-0.01,-0.02,0.035,100.0,102.0,99.0,13.3,1505.2,329.8,-0.8,1.8,2471.091,13.29,0.022,206.6
2022-09-24T05:52:03,42.805,6.029,-0.021,-0.008,0.012,99.0,101.0,100.0,13.4,1505.2,317.8,-0.8,1.8,2471.117,13.29,0.022,249.1
2022-09-24T05:55:03,42.805,6.029,0.008,-0.015,0.019,99.0,99.0,101.0,13.4,1505.2,324.1,-0.8,1.8,2471.082,13.29,0.017,151.9
2022-09-24T05:58:03,42.805,6.029,-0.003,-0.017,0.03,101.0,100.0,99.0,13.3,1505.2,329.1,-0.8,1.8,2471.045,13.29,0.017,190.0
2022-09-24T06:04:04,42.805,6.029,0.0,-0.028,0.003,101.0,101.0,99.0,13.3,1505.2,320.1,-0.8,1.8,2471.1,13.29,0.028,180.0
2022-09-24T06:07:03,42.805,6.029,-0.01,-0.01,0.012,99.0,101.0,100.0,13.4,1505.2,320.1,-0.8,1.8,2471.123,13.29,0.014,225.0
2022-09-24T06:10:03,42.805,6.029,0.026,-0.031,0.02,100.0,101.0,99.0,13.4,1505.2,324.8,-0.7,1.8,2471.077,13.29,0.04,140.0
2022-09-24T06:13:03,42.805,6.029,0.006,-0.013,0.039,100.0,103.0,97.0,13.4,1505.2,324.0,-0.8,1.8,2471.124,13.29,0.014,155.2
2022-09-24T06:16:03,42.805,6.029,-0.014,-0.014,-0.008,100.0,101.0,101.0,13.3,1505.2,326.3,-0.8,1.8,2471.087,13.29,0.019,225.0
2022-09-24T06:19:03,42.805,6.029,-0.026,-0.017,-0.003,98.0,101.0,100.0,13.4,1505.2,318.9,-0.8,1.8,2471.088,13.29,0.031,236.8
2022-09-24T06:22:02,42.805,6.029,0.0,-0.017,0.019,99.0,99.0,99.0,13.4,1505.2,319.8,-0.8,1.8,2471.122,13.29,0.017,180.0
2022-09-24T06:25:03,42.805,6.029,-0.039,-0.016,-0.022,100.0,99.0,100.0,13.4,1505.2,332.5,-0.7,1.8,2471.089,13.29,0.042,247.7
2022-09-24T06:28:03,42.805,6.029,0.003,-0.036,0.012,101.0,100.0,98.0,13.4,1505.2,320.1,-0.8,1.8,2471.074,13.29,0.036,175.2
2022-09-24T06:31:03,42.805,6.029,-0.012,0.012,0.021,101.0,101.0,101.0,13.4,1505.2,324.1,-0.7,1.8,2471.087,13.29,0.016,315.0
2022-09-24T06:34:03,42.805,6.029,-0.024,-0.041,-0.033,101.0,100.0,99.0,13.3,1505.2,322.8,-0.7,1.8,2471.101,13.29,0.047,210.3
2022-09-24T06:37:03,42.805,6.029,-0.01,-0.024,0.015,101.0,101.0,99.0,13.3,1505.2,328.3,-0.8,1.8,2471.09,13.29,0.026,202.6
2022-09-24T06:40:03,42.805,6.029,-0.022,-0.033,-0.016,100.0,102.0,100.0,13.3,1505.2,321.7,-0.8,1.8,2471.106,13.29,0.039,213.7
2022-09-24T06:43:03,42.805,6.029,-0.034,0.01,0.019,99.0,101.0,100.0,13.4,1505.2,325.4,-0.7,1.8,2471.091,13.29,0.035,286.4
2022-09-24T06:46:03,42.805,6.029,-0.035,-0.003,0.036,101.0,100.0,99.0,13.3,1505.2,317.4,-0.7,1.8,2471.087,13.29,0.035,265.1
2022-09-24T06:49:03,42.805,6.029,-0.028,-0.021,0.009,99.0,102.0,98.0,13.3,1505.2,321.8,-0.7,1.8,2471.098,13.29,0.035,233.1
2022-09-24T06:52:03,42.805,6.029,0.028,-0.044,-0.033,100.0,101.0,98.0,13.4,1505.2,316.6,-0.8,1.8,2471.129,13.29,0.052,147.5
2022-09-24T06:55:03,42.805,6.029,-0.004,-0.024,0.02,99.0,102.0,99.0,13.3,1505.2,318.6,-0.8,1.8,2471.091,13.29,0.024,189.5
2022-09-24T06:58:03,42.805,6.029,0.004,-0.03,0.045,101.0,101.0,100.0,13.4,1505.2,334.0,-0.8,1.8,2471.1,13.29,0.03,172.4
2022-09-24T07:04:06,42.805,6.029,-0.02,-0.032,-0.001,99.0,102.0,100.0,13.3,1505.2,321.7,-0.8,1.8,2471.098,13.29,0.037,212.0
2022-09-24T07:07:03,42.805,6.029,-0.019,-0.007,0.047,101.0,100.0,99.0,13.4,1505.2,330.2,-0.8,1.8,2471.105,13.29,0.02,249.8
2022-09-24T07:10:03,42.805,6.029,-0.018,-0.028,-0.011,101.0,102.0,99.0,13.4,1505.2,317.0,-0.7,1.8,2471.111,13.29,0.033,212.7
2022-09-24T07:13:05,42.805,6.029,-0.002,-0.031,-0.003,100.0,101.0,100.0,13.4,1505.2,328.8,-0.7,1.8,2471.079,13.29,0.031,183.7
2022-09-24T07:16:08,42.805,6.029,0.0,-0.04,0.01,100.0,102.0,100.0,13.3,1505.2,331.2,-0.7,1.8,2471.096,13.29,0.04,180.0
2022-09-24T07:19:03,42.805,6.029,0.006,-0.02,0.039,99.0,102.0,100.0,13.3,1505.2,318.2,-0.7,1.8,2471.095,13.29,0.02,163.3
2022-09-24T07:22:03,42.805,6.029,0.014,-0.027,0.007,102.0,100.0,100.0,13.4,1505.2,318.3,-0.8,1.8,2471.05,13.29,0.03,152.6
2022-09-24T07:25:03,42.805,6.029,-0.02,-0.014,0.012,102.0,101.0,99.0,13.3,1505.2,322.5,-0.8,1.8,2471.042,13.29,0.024,235.0
2022-09-24T07:28:03,42.805,6.029,-0.007,-0.026,0.01,99.0,101.0,101.0,13.4,1505.2,321.5,-0.7,1.8,2471.09,13.29,0.026,195.1
2022-09-24T07:31:07,42.805,6.029,-0.014,-0.023,0.015,102.0,101.0,99.0,13.4,1505.2,325.1,-0.7,1.9,2471.073,13.29,0.026,211.3
2022-09-24T07:34:03,42.805,6.029,-0.012,-0.034,-0.026,102.0,101.0,98.0,13.4,1505.2,319.4,-0.8,1.9,2471.1,13.29,0.036,199.4
2022-09-24T07:37:03,42.805,6.029,-0.014,-0.03,0.029,100.0,100.0,100.0,13.4,1505.2,332.5,-0.8,1.9,2471.077,13.29,0.033,205.0
2022-09-24T07:40:03,42.805,6.029,-0.02,-0.038,0.015,100.0,101.0,100.0,13.4,1505.2,323.6,-0.8,1.8,2471.058,13.29,0.042,207.8
2022-09-24T07:43:03,42.805,6.029,0.018,-0.03,0.006,100.0,100.0,100.0,13.4,1505.2,319.7,-0.7,1.8,2471.079,13.29,0.034,149.0
2022-09-24T07:46:03,42.805,6.029,-0.008,-0.034,0.017,100.0,100.0,99.0,13.3,1505.2,328.5,-0.8,1.8,2471.014,13.29,0.034,193.2
2022-09-24T07:49:03,42.805,6.029,-0.017,-0.032,0.002,103.0,103.0,98.0,13.4,1505.2,322.1,-0.7,1.8,2471.043,13.29,0.036,208.0
2022-09-24T07:52:03,42.805,6.029,-0.016,-0.021,0.005,99.0,101.0,100.0,13.4,1505.2,320.5,-0.8,1.8,2471.068,13.29,0.026,217.3
2022-09-24T07:55:03,42.805,6.029,-0.026,-0.026,0.011,98.0,106.0,100.0,13.4,1505.2,332.2,-0.8,1.8,2471.024,13.29,0.036,225.0
2022-09-24T07:58:03,42.805,6.029,-0.016,-0.004,0.015,99.0,100.0,100.0,13.4,1505.2,321.5,-0.7,1.8,2471.067,13.29,0.016,256.0
2022-09-24T08:04:03,42.805,6.029,-0.014,-0.035,-0.003,101.0,100.0,99.0,13.3,1505.2,326.7,-0.8,1.8,2471.101,13.29,0.037,201.8
2022-09-24T08:07:03,42.805,6.029,-0.017,-0.024,0.007,100.0,99.0,99.0,13.3,1505.2,325.1,-0.7,1.8,2471.087,13.29,0.029,215.3
2022-09-24T08:10:03,42.805,6.029,-0.021,-0.019,0.004,101.0,101.0,99.0,13.4,1505.2,330.6,-0.8,1.8,2471.111,13.29,0.028,227.9
2022-09-24T08:13:03,42.805,6.029,-0.002,-0.029,-0.027,101.0,100.0,101.0,13.4,1505.2,323.9,-0.7,1.8,2471.065,13.29,0.029,183.9
2022-09-24T08:16:03,42.805,6.029,-0.01,-0.021,-0.009,101.0,100.0,99.0,13.4,1505.2,322.2,-0.8,1.8,2471.042,13.29,0.023,205.5
2022-09-24T08:19:03,42.805,6.029,-0.023,-0.038,0.031,98.0,100.0,99.0,13.4,1505.2,327.8,-0.8,1.8,2471.06,13.29,0.044,211.2
2022-09-24T08:22:03,42.805,6.029,-0.013,-0.024,0.01,98.0,100.0,101.0,13.4,1505.2,333.4,-0.8,1.8,2471.045,13.29,0.027,208.4
2022-09-24T08:25:03,42.805,6.029,-0.016,-0.013,0.034,101.0,100.0,100.0,13.4,1505.2,321.1,-0.7,1.8,2471.04,13.29,0.02,230.9
2022-09-24T08:28:03,42.805,6.029,0.005,-0.022,0.0,99.0,101.0,100.0,13.4,1505.2,323.7,-0.8,1.8,2471.082,13.29,0.022,167.2
2022-09-24T08:31:03,42.805,6.029,-0.004,-0.043,-0.021,100.0,100.0,99.0,13.4,1505.2,328.3,-0.8,1.8,2471.061,13.29,0.043,185.3
2022-09-24T08:34:03,42.805,6.029,-0.037,-0.057,-0.041,100.0,99.0,100.0,13.4,1505.2,329.0,-0.8,1.8,2470.997,13.29,0.067,213.0
2022-09-24T08:37:03,42.805,6.029,-0.008,-0.023,-0.001,99.0,100.0,100.0,13.4,1505.2,325.0,-0.7,1.8,2471.009,13.29,0.024,199.2
2022-09-24T08:40:03,42.805,6.029,0.007,-0.014,0.018,99.0,101.0,103.0,13.4,1505.2,327.8,-0.7,1.8,2471.049,13.29,0.015,153.4
2022-09-24T08:43:05,42.805,6.029,-0.003,-0.028,-0.013,100.0,100.0,99.0,13.4,1505.2,322.1,-0.8,1.8,2470.992,13.29,0.028,186.1
2022-09-24T08:46:05,42.805,6.029,-0.023,-0.016,0.021,102.0,102.0,97.0,13.4,1505.2,326.1,-0.7,1.8,2471.068,13.29,0.028,235.2
2022-09-24T08:49:03,42.805,6.029,-0.023,-0.014,-0.008,100.0,100.0,101.0,13.4,1505.2,326.6,-0.7,1.8,2471.023,13.29,0.026,238.7
2022-09-24T08:52:03,42.805,6.029,-0.024,-0.044,-0.031,99.0,102.0,98.0,13.4,1505.2,328.3,-0.8,1.8,2471.027,13.29,0.05,208.6
2022-09-24T08:55:03,42.805,6.029,-0.016,-0.029,0.01,100.0,100.0,99.0,13.3,1505.2,317.0,-0.8,1.8,2471.071,13.29,0.033,208.9
2022-09-24T08:58:03,42.805,6.029,-0.007,-0.044,-0.01,98.0,101.0,99.0,13.4,1505.2,331.2,-0.7,1.8,2471.029,13.29,0.044,189.0
2022-09-24T09:04:03,42.805,6.029,-0.011,-0.046,-0.017,100.0,99.0,102.0,13.3,1505.2,332.8,-0.8,1.8,2471.06,13.29,0.047,193.4
2022-09-24T09:07:03,42.805,6.029,-0.033,-0.038,-0.014,100.0,101.0,100.0,13.4,1505.2,318.9,-0.8,1.8,2471.082,13.29,0.05,221.0
2022-09-24T09:10:03,42.805,6.029,-0.001,-0.014,0.025,105.0,99.0,98.0,13.4,1505.2,332.0,-0.8,1.8,2471.012,13.29,0.014,184.1
2022-09-24T09:13:10,42.805,6.029,-0.004,-0.029,-0.033,100.0,100.0,100.0,13.4,1505.2,318.0,-0.8,1.8,2471.034,13.29,0.029,187.8
2022-09-24T09:16:03,42.805,6.029,-0.001,-0.037,-0.032,99.0,100.0,99.0,13.3,1505.2,322.1,-0.8,1.8,2471.066,13.29,0.037,181.5
2022-09-24T09:19:03,42.805,6.029,-0.01,-0.008,0.004,99.0,104.0,103.0,13.3,1505.2,323.7,-0.8,1.8,2471.071,13.29,0.012,231.3
2022-09-24T09:22:03,42.805,6.029,-0.014,-0.023,0.008,100.0,100.0,99.0,13.3,1505.2,327.3,-0.7,1.8,2471.018,13.29,0.026,211.3
2022-09-24T09:25:07,42.805,6.029,0.0,-0.025,0.015,98.0,103.0,99.0,13.3,1505.2,316.2,-0.8,1.9,2471.054,13.29,0.025,180.0
2022-09-24T09:28:03,42.805,6.029,-0.02,-0.023,-0.017,101.0,99.0,99.0,13.4,1505.2,326.3,-0.8,1.8,2471.028,13.29,0.03,221.0
2022-09-24T09:31:03,42.805,6.029,-0.016,-0.017,0.0,100.0,100.0,99.0,13.4,1505.2,327.7,-0.7,1.8,2471.039,13.29,0.023,223.3
2022-09-24T09:34:03,42.805,6.029,-0.004,-0.026,-0.007,100.0,99.0,100.0,13.3,1505.2,328.5,-0.7,1.8,2470.997,13.29,0.026,188.7
2022-09-24T09:37:03,42.805,6.029,0.014,-0.039,0.006,98.0,101.0,99.0,13.4,1505.2,324.0,-0.8,1.8,2471.024,13.29,0.041,160.3
2022-09-24T09:40:03,42.805,6.029,-0.02,-0.025,-0.02,98.0,101.0,100.0,13.3,1505.2,317.5,-0.7,1.8,2471.017,13.29,0.032,218.7
2022-09-24T09:43:03,42.805,6.029,-0.019,-0.018,0.009,102.0,100.0,98.0,13.4,1505.2,319.0,-0.8,1.8,2471.018,13.29,0.026,226.5
2022-09-24T09:46:03,42.805,6.029,-0.044,-0.015,-0.016,98.0,100.0,99.0,13.4,1505.2,331.9,-0.7,1.8,2470.979,13.29,0.046,251.2
2022-09-24T09:49:03,42.805,6.029,-0.016,-0.02,0.021,101.0,103.0,98.0,13.3,1505.2,329.6,-0.8,1.8,2470.987,13.29,0.025,218.7
2022-09-24T09:52:03,42.805,6.029,-0.024,-0.042,-0.035,100.0,102.0,99.0,13.3,1505.2,327.0,-0.7,1.8,2471.02,13.29,0.048,209.7
2022-09-24T09:55:06,42.805,6.029,-0.005,-0.042,0.003,98.0,101.0,100.0,13.3,1505.2,331.2,-0.7,1.8,2471.023,13.29,0.042,186.8
2022-09-24T09:58:03,42.805,6.029,-0.022,-0.04,-0.006,99.0,101.0,99.0,13.3,1505.2,325.9,-0.8,1.8,2470.99,13.29,0.045,208.8